| time (UTC) | temp C | wind direction | speed KPH | gust KPH | rain 1hr cm | rain 24hr cm | rain mn cm | humidity % | barometer mb |
| 20260506082258 | 19 | 135 | 3.2 | 11.3 | 0.00 | 0.00 | 0.00 | 68 | 1007.3 |
| 20260506081757 | 19 | 241 | 3.2 | 11.3 | 0.00 | 0.00 | 0.00 | 68 | 1007.3 |
| 20260506081254 | 19 | 204 | 3.2 | 14.5 | 0.00 | 0.00 | 0.00 | 68 | 1007.3 |
| 20260506080754 | 19 | 247 | 3.2 | 14.5 | 0.00 | 0.00 | 0.00 | 67 | 1007.3 |
| 20260506080254 | 19 | 221 | 1.6 | 8.0 | 0.00 | 0.00 | 0.00 | 67 | 1007.3 |
| 20260506073257 | 20 | 212 | 3.2 | 9.7 | 0.00 | 0.00 | 0.00 | 65 | 1007.2 |
| 20260506073248 | 20 | 241 | 1.6 | 8.0 | 0.00 | 0.00 | 0.00 | 65 | 1007.2 |
| 20260506072233 | 20 | 193 | 4.8 | 9.7 | 0.00 | 0.00 | 0.00 | 65 | 1007.3 |
| 20260506072013 | 20 | 306 | 1.6 | 6.4 | 0.00 | 0.00 | 0.00 | 65 | 1007.3 |
| 20260506071234 | 20 | 283 | 1.6 | 3.2 | 0.00 | 0.00 | 0.00 | 65 | 1007.4 |
| 20260506071013 | 20 | 217 | 1.6 | 8.0 | 0.00 | 0.00 | 0.00 | 64 | 1007.4 |
| 20260506070230 | 20 | 159 | 3.2 | 9.7 | 0.00 | 0.00 | 0.00 | 64 | 1007.5 |
| 20260506062222 | 20 | 223 | 1.6 | 6.4 | 0.00 | 0.00 | 0.00 | 62 | 1007.9 |
| 20260506062002 | 20 | 214 | 1.6 | 9.7 | 0.00 | 0.00 | 0.00 | 62 | 1007.9 |
| 20260506061224 | 20 | 207 | 4.8 | 9.7 | 0.00 | 0.00 | 0.00 | 62 | 1007.9 |
| 20260506060722 | 20 | 227 | 3.2 | 9.7 | 0.00 | 0.00 | 0.00 | 61 | 1007.9 |
| 20260506060220 | 21 | 220 | 1.6 | 6.4 | 0.00 | 0.00 | 0.00 | 61 | 1007.9 |
| 20260506051204 | 21 | 240 | 4.8 | 9.7 | 0.00 | 0.00 | 0.00 | 58 | 1008.2 |
| 20260506050946 | 21 | 197 | 3.2 | 9.7 | 0.00 | 0.00 | 0.00 | 58 | 1008.2 |
| 20260506050204 | 21 | 262 | 3.2 | 9.7 | 0.00 | 0.00 | 0.00 | 58 | 1008.3 |
| 20260506044702 | 21 | 244 | 3.2 | 8.0 | 0.00 | 0.00 | 0.00 | 59 | 1008.3 |
| 20260506044203 | 21 | 203 | 3.2 | 6.4 | 0.00 | 0.00 | 0.00 | 58 | 1008.3 |
| 20260506043702 | 21 | 231 | 3.2 | 8.0 | 0.00 | 0.00 | 0.00 | 58 | 1008.3 |
| 20260506043202 | 21 | 157 | 4.8 | 8.0 | 0.00 | 0.00 | 0.00 | 57 | 1008.3 |
| 20260506042702 | 21 | 219 | 1.6 | 11.3 | 0.00 | 0.00 | 0.00 | 57 | 1008.3 |
| 20260506042203 | 21 | 89 | 1.6 | 11.3 | 0.00 | 0.00 | 0.00 | 57 | 1008.3 |
| 20260506041702 | 21 | 258 | 3.2 | 8.0 | 0.00 | 0.00 | 0.00 | 56 | 1008.3 |
| 20260506041202 | 21 | 223 | 3.2 | 14.5 | 0.00 | 0.00 | 0.00 | 56 | 1008.3 |
| 20260506040704 | 21 | 204 | 4.8 | 14.5 | 0.00 | 0.00 | 0.00 | 56 | 1008.3 |
| 20260506040202 | 21 | 240 | 6.4 | 14.5 | 0.00 | 0.00 | 0.00 | 56 | 1008.4 |
| 20260506035701 | 21 | 0 | 1.6 | 11.3 | 0.00 | 0.00 | 0.00 | 55 | 1008.3 |
| 20260506035203 | 21 | 230 | 3.2 | 9.7 | 0.00 | 0.00 | 0.00 | 55 | 1008.2 |
| 20260506034701 | 21 | 237 | 3.2 | 14.5 | 0.00 | 0.00 | 0.00 | 55 | 1008.2 |
| 20260506034154 | 21 | 200 | 3.2 | 14.5 | 0.00 | 0.00 | 0.00 | 55 | 1008.3 |
| 20260506033656 | 21 | 241 | 3.2 | 14.5 | 0.00 | 0.00 | 0.00 | 55 | 1008.2 |
| 20260506033155 | 21 | 213 | 3.2 | 6.4 | 0.00 | 0.00 | 0.00 | 55 | 1008.3 |
| 20260506032655 | 21 | 243 | 1.6 | 6.4 | 0.00 | 0.00 | 0.00 | 55 | 1008.3 |
| 20260506032156 | 21 | 192 | 3.2 | 6.4 | 0.00 | 0.00 | 0.00 | 54 | 1008.3 |
| 20260506031933 | 21 | 269 | 1.6 | 6.4 | 0.00 | 0.00 | 0.00 | 54 | 1008.4 |
| 20260506031151 | 21 | 247 | 1.6 | 9.7 | 0.00 | 0.00 | 0.00 | 54 | 1008.4 |
| 20260506030650 | 21 | 44 | 3.2 | 9.7 | 0.00 | 0.00 | 0.00 | 53 | 1008.2 |
| 20260506030149 | 21 | 217 | 1.6 | 9.7 | 0.00 | 0.00 | 0.00 | 52 | 1008.2 |
| 20260506025649 | 21 | 200 | 3.2 | 9.7 | 0.00 | 0.00 | 0.00 | 52 | 1008.3 |
| 20260506025149 | 21 | 230 | 4.8 | 9.7 | 0.00 | 0.00 | 0.00 | 51 | 1008.2 |
| 20260506024715 | 21 | 173 | 3.2 | 9.7 | 0.00 | 0.00 | 0.00 | 51 | 1008.2 |
| 20260506024705 | 21 | 231 | 3.2 | 8.0 | 0.00 | 0.00 | 0.00 | 51 | 1008.2 |
| 20260506023930 | 22 | 151 | 1.6 | 11.3 | 0.00 | 0.00 | 0.00 | 51 | 1008.3 |
| 20260506023427 | 22 | 138 | 3.2 | 11.3 | 0.00 | 0.00 | 0.00 | 50 | 1008.2 |
| 20260506022649 | 22 | 220 | 1.6 | 6.4 | 0.00 | 0.00 | 0.00 | 50 | 1008.4 |
| 20260506022148 | 22 | 212 | 3.2 | 6.4 | 0.00 | 0.00 | 0.00 | 49 | 1008.4 |
| 20260506021926 | 22 | 197 | 1.6 | 9.7 | 0.00 | 0.00 | 0.00 | 49 | 1008.3 |
| 20260506021148 | 22 | 228 | 4.8 | 9.7 | 0.00 | 0.00 | 0.00 | 48 | 1008.3 |
| 20260506020648 | 22 | 235 | 1.6 | 16.1 | 0.00 | 0.00 | 0.00 | 47 | 1008.4 |
| 20260506020149 | 22 | 212 | 3.2 | 16.1 | 0.00 | 0.00 | 0.00 | 46 | 1008.3 |
| 20260506015929 | 22 | 202 | 3.2 | 6.4 | 0.00 | 0.00 | 0.00 | 46 | 1008.3 |
| 20260506015428 | 22 | 216 | 1.6 | 3.2 | 0.00 | 0.00 | 0.00 | 47 | 1008.2 |
| 20260506014649 | 22 | 179 | 1.6 | 8.0 | 0.00 | 0.00 | 0.00 | 46 | 1008.2 |
| 20260506014147 | 22 | 192 | 1.6 | 8.0 | 0.00 | 0.00 | 0.00 | 46 | 1008.1 |
| 20260506013647 | 22 | 190 | 1.6 | 9.7 | 0.00 | 0.00 | 0.00 | 45 | 1008.2 |
| 20260506013148 | 22 | 179 | 3.2 | 9.7 | 0.00 | 0.00 | 0.00 | 45 | 1008.2 |
| 20260506012647 | 22 | 257 | 1.6 | 11.3 | 0.00 | 0.00 | 0.00 | 44 | 1008.1 |
| 20260506012147 | 22 | 0 | 3.2 | 11.3 | 0.00 | 0.00 | 0.00 | 44 | 1008.1 |
| 20260506011926 | 22 | 223 | 3.2 | 8.0 | 0.00 | 0.00 | 0.00 | 43 | 1007.9 |
| 20260506011427 | 22 | 233 | 3.2 | 6.4 | 0.00 | 0.00 | 0.00 | 43 | 1007.9 |
| 20260506010647 | 23 | 213 | 1.6 | 6.4 | 0.00 | 0.00 | 0.00 | 42 | 1007.9 |
| 20260506010149 | 23 | 180 | 1.6 | 6.4 | 0.00 | 0.00 | 0.00 | 42 | 1007.9 |
| 20260506005648 | 23 | 203 | 1.6 | 6.4 | 0.00 | 0.00 | 0.00 | 42 | 1007.8 |
| 20260506005148 | 23 | 230 | 3.2 | 8.0 | 0.00 | 0.00 | 0.00 | 42 | 1007.8 |
| 20260506004646 | 23 | 250 | 3.2 | 8.0 | 0.00 | 0.00 | 0.00 | 40 | 1007.6 |
| 20260506004147 | 23 | 203 | 3.2 | 6.4 | 0.00 | 0.00 | 0.00 | 40 | 1007.6 |
| 20260506003647 | 23 | 212 | 3.2 | 6.4 | 0.00 | 0.00 | 0.00 | 40 | 1007.4 |
| 20260506003147 | 23 | 261 | 3.2 | 6.4 | 0.00 | 0.00 | 0.00 | 39 | 1007.3 |
| 20260506002646 | 23 | 223 | 1.6 | 11.3 | 0.00 | 0.00 | 0.00 | 39 | 1007.4 |
| 20260506002146 | 23 | 259 | 1.6 | 11.3 | 0.00 | 0.00 | 0.00 | 39 | 1007.3 |
| 20260506001927 | 24 | 220 | 3.2 | 6.4 | 0.00 | 0.00 | 0.00 | 38 | 1007.4 |
| 20260506001145 | 24 | 248 | 1.6 | 6.4 | 0.00 | 0.00 | 0.00 | 38 | 1007.3 |
| 20260506000647 | 24 | 216 | 3.2 | 6.4 | 0.00 | 0.00 | 0.00 | 37 | 1007.3 |
| 20260506000145 | 24 | 190 | 3.2 | 6.4 | 0.00 | 0.00 | 0.00 | 37 | 1007.3 |
| 20260505235648 | 25 | 234 | 3.2 | 4.8 | 0.00 | 0.00 | 0.00 | 36 | 1007.1 |
| 20260505235145 | 25 | 281 | 1.6 | 9.7 | 0.00 | 0.00 | 0.00 | 36 | 1007.1 |
| 20260505234645 | 25 | 212 | 4.8 | 16.1 | 0.00 | 0.00 | 0.00 | 34 | 1007.1 |
| 20260505234146 | 25 | 217 | 3.2 | 16.1 | 0.00 | 0.00 | 0.00 | 35 | 1007.1 |
| 20260505233645 | 25 | 206 | 6.4 | 16.1 | 0.00 | 0.00 | 0.00 | 35 | 1007.1 |
| 20260505233144 | 25 | 237 | 3.2 | 11.3 | 0.00 | 0.00 | 0.00 | 35 | 1007.1 |
| 20260505232644 | 25 | 230 | 3.2 | 11.3 | 0.00 | 0.00 | 0.00 | 35 | 1007.0 |
| 20260505232144 | 25 | 240 | 3.2 | 9.7 | 0.00 | 0.00 | 0.00 | 35 | 1007.0 |
| 20260505231646 | 25 | 228 | 4.8 | 9.7 | 0.00 | 0.00 | 0.00 | 35 | 1007.0 |
| 20260505231423 | 25 | 134 | 1.6 | 8.0 | 0.00 | 0.00 | 0.00 | 35 | 1007.1 |
| 20260505230644 | 26 | 220 | 3.2 | 9.7 | 0.00 | 0.00 | 0.00 | 34 | 1007.2 |
| 20260505230425 | 26 | 171 | 1.6 | 20.9 | 0.00 | 0.00 | 0.00 | 34 | 1007.1 |
| 20260505225923 | 26 | 320 | 4.8 | 20.9 | 0.00 | 0.00 | 0.00 | 33 | 1007.1 |
| 20260505225425 | 26 | 206 | 4.8 | 20.9 | 0.00 | 0.00 | 0.00 | 32 | 1007.3 |
| 20260505224645 | 26 | 195 | 4.8 | 14.5 | 0.00 | 0.00 | 0.00 | 33 | 1007.2 |
| 20260505224411 | 26 | 197 | 4.8 | 14.5 | 0.00 | 0.00 | 0.00 | 32 | 1007.1 |
| 20260505223633 | 26 | 192 | 4.8 | 9.7 | 0.00 | 0.00 | 0.00 | 33 | 1007.1 |
| 20260505223411 | 26 | 247 | 1.6 | 9.7 | 0.00 | 0.00 | 0.00 | 32 | 1007.2 |
| 20260505222631 | 26 | 265 | 3.2 | 9.7 | 0.00 | 0.00 | 0.00 | 33 | 1007.2 |
| 20260505222133 | 26 | 11 | 3.2 | 11.3 | 0.00 | 0.00 | 0.00 | 32 | 1007.1 |
| 20260505221631 | 26 | 210 | 4.8 | 11.3 | 0.00 | 0.00 | 0.00 | 32 | 1007.0 |
| 20260505221130 | 26 | 309 | 6.4 | 11.3 | 0.00 | 0.00 | 0.00 | 33 | 1007.1 |
| 20260505220629 | 27 | 258 | 3.2 | 8.0 | 0.00 | 0.00 | 0.00 | 34 | 1007.0 |
| 20260505220127 | 27 | 213 | 1.6 | 17.7 | 0.00 | 0.00 | 0.00 | 32 | 1006.9 |
| 20260505215626 | 27 | 228 | 3.2 | 24.1 | 0.00 | 0.00 | 0.00 | 32 | 1006.9 |
| 20260505215127 | 27 | 221 | 8.0 | 24.1 | 0.00 | 0.00 | 0.00 | 31 | 1007.0 |
| 20260505214625 | 27 | 231 | 4.8 | 17.7 | 0.00 | 0.00 | 0.00 | 31 | 1007.0 |
| 20260505214127 | 27 | 241 | 6.4 | 24.1 | 0.00 | 0.00 | 0.00 | 31 | 1006.9 |
| 20260505213624 | 27 | 248 | 6.4 | 24.1 | 0.00 | 0.00 | 0.00 | 32 | 1006.9 |
| 20260505213122 | 27 | 230 | 6.4 | 20.9 | 0.00 | 0.00 | 0.00 | 32 | 1006.9 |
| 20260505212858 | 27 | 259 | 3.2 | 11.3 | 0.00 | 0.00 | 0.00 | 33 | 1006.9 |
| 20260505212120 | 27 | 179 | 4.8 | 16.1 | 0.00 | 0.00 | 0.00 | 33 | 1006.9 |
| 20260505211619 | 27 | 107 | 3.2 | 16.1 | 0.00 | 0.00 | 0.00 | 33 | 1007.0 |
| 20260505211358 | 27 | 219 | 6.4 | 17.7 | 0.00 | 0.00 | 0.00 | 32 | 1006.8 |
| 20260505210616 | 28 | 243 | 8.0 | 19.3 | 0.00 | 0.00 | 0.00 | 31 | 1006.8 |
| 20260505210116 | 28 | 251 | 4.8 | 19.3 | 0.00 | 0.00 | 0.00 | 31 | 1006.8 |
| 20260505205616 | 28 | 230 | 4.8 | 16.1 | 0.00 | 0.00 | 0.00 | 33 | 1006.9 |
| 20260505205118 | 28 | 216 | 3.2 | 17.7 | 0.00 | 0.00 | 0.00 | 34 | 1006.8 |
| 20260505204616 | 28 | 334 | 3.2 | 19.3 | 0.00 | 0.00 | 0.00 | 35 | 1006.8 |
| 20260505204113 | 28 | 262 | 6.4 | 19.3 | 0.00 | 0.00 | 0.00 | 33 | 1006.8 |
| 20260505203612 | 28 | 245 | 3.2 | 11.3 | 0.00 | 0.00 | 0.00 | 34 | 1006.8 |
| 20260505203112 | 28 | 252 | 4.8 | 17.7 | 0.00 | 0.00 | 0.00 | 33 | 1006.7 |
| 20260505202610 | 28 | 86 | 6.4 | 22.5 | 0.00 | 0.00 | 0.00 | 33 | 1006.8 |
| 20260505202110 | 28 | 223 | 6.4 | 22.5 | 0.00 | 0.00 | 0.00 | 32 | 1007.0 |
| 20260505201850 | 28 | 230 | 3.2 | 17.7 | 0.00 | 0.00 | 0.00 | 32 | 1006.8 |
| 20260505201110 | 28 | 233 | 3.2 | 25.7 | 0.00 | 0.00 | 0.00 | 33 | 1006.8 |
| 20260505200612 | 28 | 241 | 8.0 | 25.7 | 0.00 | 0.00 | 0.00 | 31 | 1006.9 |
| 20260505200111 | 28 | 168 | 8.0 | 16.1 | 0.00 | 0.00 | 0.00 | 30 | 1006.9 |
| 20260505195608 | 28 | 207 | 6.4 | 17.7 | 0.00 | 0.00 | 0.00 | 31 | 1006.9 |
| 20260505195107 | 29 | 155 | 6.4 | 17.7 | 0.00 | 0.00 | 0.00 | 30 | 1006.9 |
| 20260505194608 | 29 | 199 | 3.2 | 22.5 | 0.00 | 0.00 | 0.00 | 30 | 1006.9 |
| 20260505194106 | 29 | 130 | 9.7 | 22.5 | 0.00 | 0.00 | 0.00 | 28 | 1007.1 |
| 20260505193604 | 29 | 96 | 4.8 | 17.7 | 0.00 | 0.00 | 0.00 | 32 | 1007.1 |
| 20260505193103 | 29 | 250 | 4.8 | 20.9 | 0.00 | 0.00 | 0.00 | 31 | 1007.3 |
| 20260505192604 | 29 | 134 | 9.7 | 20.9 | 0.00 | 0.00 | 0.00 | 28 | 1007.0 |
| 20260505192102 | 29 | 235 | 8.0 | 20.9 | 0.00 | 0.00 | 0.00 | 29 | 1007.4 |
| 20260505191841 | 29 | 213 | 6.4 | 20.9 | 0.00 | 0.00 | 0.00 | 30 | 1007.4 |
| 20260505191102 | 30 | 196 | 6.4 | 17.7 | 0.00 | 0.00 | 0.00 | 29 | 1007.4 |
| 20260505190601 | 29 | 193 | 4.8 | 16.1 | 0.00 | 0.00 | 0.00 | 31 | 1007.4 |
| 20260505190343 | 30 | 111 | 4.8 | 11.3 | 0.00 | 0.00 | 0.00 | 32 | 1007.6 |
| 20260505185600 | 30 | 223 | 4.8 | 14.5 | 0.00 | 0.00 | 0.00 | 32 | 1007.8 |
| 20260505185100 | 30 | 261 | 4.8 | 16.1 | 0.00 | 0.00 | 0.00 | 30 | 1007.7 |
| 20260505184603 | 30 | 248 | 6.4 | 16.1 | 0.00 | 0.00 | 0.00 | 31 | 1007.9 |
| 20260505184056 | 29 | 281 | 6.4 | 16.1 | 0.00 | 0.00 | 0.00 | 30 | 1007.9 |
| 20260505183555 | 29 | 261 | 8.0 | 16.1 | 0.00 | 0.00 | 0.00 | 30 | 1008.0 |
| 20260505183056 | 29 | 259 | 8.0 | 19.3 | 0.00 | 0.00 | 0.00 | 29 | 1008.3 |
| 20260505182554 | 30 | 237 | 6.4 | 19.3 | 0.00 | 0.00 | 0.00 | 30 | 1008.1 |
| 20260505182054 | 30 | 216 | 3.2 | 11.3 | 0.00 | 0.00 | 0.00 | 34 | 1008.2 |
| 20260505181554 | 30 | 185 | 6.4 | 17.7 | 0.00 | 0.00 | 0.00 | 30 | 1008.2 |
| 20260505181054 | 30 | 314 | 6.4 | 17.7 | 0.00 | 0.00 | 0.00 | 31 | 1008.4 |
| 20260505180551 | 29 | 241 | 3.2 | 14.5 | 0.00 | 0.00 | 0.00 | 32 | 1008.4 |
| 20260505180050 | 29 | 271 | 6.4 | 16.1 | 0.00 | 0.00 | 0.00 | 31 | 1008.4 |
| 20260505175547 | 29 | 117 | 8.0 | 16.1 | 0.00 | 0.00 | 0.00 | 30 | 1008.4 |
| 20260505175326 | 29 | 219 | 3.2 | 16.1 | 0.00 | 0.00 | 0.00 | 33 | 1008.5 |
| 20260505174548 | 30 | 133 | 6.4 | 16.1 | 0.00 | 0.00 | 0.00 | 32 | 1008.5 |
| 20260505174047 | 30 | 227 | 4.8 | 14.5 | 0.00 | 0.00 | 0.00 | 32 | 1008.6 |
| 20260505173824 | 29 | 220 | 6.4 | 14.5 | 0.00 | 0.00 | 0.00 | 31 | 1008.6 |
| 20260505173044 | 30 | 341 | 4.8 | 14.5 | 0.00 | 0.00 | 0.00 | 32 | 1008.7 |
| 20260505172543 | 30 | 257 | 4.8 | 11.3 | 0.00 | 0.00 | 0.00 | 33 | 1008.7 |
| 20260505172045 | 30 | 272 | 3.2 | 9.7 | 0.00 | 0.00 | 0.00 | 36 | 1008.6 |
| 20260505171542 | 29 | 234 | 3.2 | 14.5 | 0.00 | 0.00 | 0.00 | 32 | 1008.7 |
| 20260505171317 | 29 | 212 | 3.2 | 14.5 | 0.00 | 0.00 | 0.00 | 34 | 1008.7 |
| 20260505170846 | 29 | 317 | 6.4 | 22.5 | 0.00 | 0.00 | 0.00 | 34 | 1008.8 |
| 20260505170557 | 29 | 135 | 4.8 | 22.5 | 0.00 | 0.00 | 0.00 | 33 | 1008.9 |
| 20260505165539 | 29 | 233 | 8.0 | 16.1 | 0.00 | 0.00 | 0.00 | 33 | 1008.9 |
| 20260505165037 | 29 | 199 | 3.2 | 14.5 | 0.00 | 0.00 | 0.00 | 37 | 1008.9 |
| 20260505164537 | 29 | 224 | 4.8 | 11.3 | 0.00 | 0.00 | 0.00 | 34 | 1009.0 |
| 20260505164037 | 29 | 195 | 4.8 | 9.7 | 0.00 | 0.00 | 0.00 | 37 | 1009.1 |
| 20260505163538 | 29 | 314 | 3.2 | 9.7 | 0.00 | 0.00 | 0.00 | 36 | 1009.2 |
| 20260505163037 | 29 | 265 | 4.8 | 9.7 | 0.00 | 0.00 | 0.00 | 36 | 1009.3 |
| 20260505162535 | 29 | 106 | 3.2 | 14.5 | 0.00 | 0.00 | 0.00 | 38 | 1009.3 |
| 20260505162037 | 28 | 272 | 4.8 | 14.5 | 0.00 | 0.00 | 0.00 | 37 | 1009.5 |
| 20260505161536 | 28 | 234 | 3.2 | 14.5 | 0.00 | 0.00 | 0.00 | 36 | 1009.7 |
| 20260505161035 | 29 | 176 | 3.2 | 8.0 | 0.00 | 0.00 | 0.00 | 36 | 1009.7 |
| 20260505160904 | 28 | 214 | 3.2 | 9.7 | 0.00 | 0.00 | 0.00 | 38 | 1009.9 |
| 20260505160613 | 29 | 278 | 1.6 | 8.0 | 0.00 | 0.00 | 0.00 | 39 | 1009.7 |
| 20260505153034 | 28 | 192 | 3.2 | 8.0 | 0.00 | 0.00 | 0.00 | 40 | 1009.9 |
| 20260505152534 | 28 | 168 | 3.2 | 8.0 | 0.00 | 0.00 | 0.00 | 40 | 1009.9 |
| 20260505152313 | 28 | 271 | 3.2 | 8.0 | 0.00 | 0.00 | 0.00 | 40 | 1009.9 |
| 20260505151535 | 27 | 59 | 1.6 | 11.3 | 0.00 | 0.00 | 0.00 | 45 | 1010.0 |
| 20260505151033 | 27 | 10 | 1.6 | 11.3 | 0.00 | 0.00 | 0.00 | 43 | 1009.9 |
| 20260505150534 | 28 | 237 | 3.2 | 6.4 | 0.00 | 0.00 | 0.00 | 39 | 1009.9 |
| 20260505140530 | 25 | 250 | 1.6 | 8.0 | 0.00 | 0.00 | 0.00 | 48 | 1010.1 |
| 20260505125018 | 21 | 209 | 1.6 | 8.0 | 0.00 | 0.00 | 0.00 | 52 | 1010.2 |
| 20260505124518 | 21 | 243 | 0.0 | 8.0 | 0.00 | 0.00 | 0.00 | 53 | 1010.3 |
| 20260505124020 | 21 | 354 | 1.6 | 9.7 | 0.00 | 0.00 | 0.00 | 53 | 1010.4 |
| 20260505123518 | 21 | 337 | 0.0 | 9.7 | 0.00 | 0.00 | 0.00 | 54 | 1010.3 |
| 20260505123020 | 20 | 288 | 1.6 | 8.0 | 0.00 | 0.00 | 0.00 | 55 | 1010.2 |
| 20260505122518 | 20 | 245 | 1.6 | 6.4 | 0.00 | 0.00 | 0.00 | 56 | 1010.4 |
| 20260505122013 | 20 | 321 | 3.2 | 6.4 | 0.00 | 0.00 | 0.00 | 54 | 1010.2 |
| 20260505121511 | 19 | 209 | 3.2 | 9.7 | 0.00 | 0.00 | 0.00 | 56 | 1010.2 |
| 20260505121009 | 19 | 243 | 1.6 | 9.7 | 0.00 | 0.00 | 0.00 | 56 | 1010.3 |
| 20260505120509 | 18 | 282 | 3.2 | 9.7 | 0.00 | 0.00 | 0.00 | 58 | 1010.3 |
| 20260505120009 | 18 | 155 | 3.2 | 9.7 | 0.00 | 0.00 | 0.00 | 57 | 1010.2 |
| 20260505115509 | 18 | 288 | 3.2 | 8.0 | 0.00 | 0.00 | 0.00 | 59 | 1010.2 |
| 20260505115006 | 18 | 193 | 3.2 | 8.0 | 0.00 | 0.00 | 0.00 | 58 | 1009.9 |
| 20260505114504 | 17 | 251 | 1.6 | 8.0 | 0.00 | 0.00 | 0.00 | 61 | 1010.0 |
| 20260505114029 | 17 | 226 | 1.6 | 4.8 | 0.00 | 0.00 | 0.00 | 61 | 1009.9 |
| 20260505114020 | 17 | 275 | 1.6 | 4.8 | 0.00 | 0.00 | 0.00 | 60 | 1009.9 |
| 20260505113004 | 16 | 224 | 1.6 | 6.4 | 0.00 | 0.00 | 0.00 | 64 | 1009.9 |
| 20260505112502 | 16 | 223 | 1.6 | 6.4 | 0.00 | 0.00 | 0.00 | 64 | 1009.8 |
| 20260505112003 | 16 | 200 | 3.2 | 6.4 | 0.00 | 0.00 | 0.00 | 64 | 1009.8 |
| 20260505111503 | 15 | 241 | 3.2 | 4.8 | 0.00 | 0.00 | 0.00 | 64 | 1009.8 |
| 20260505111003 | 15 | 262 | 3.2 | 6.4 | 0.00 | 0.00 | 0.00 | 64 | 1009.8 |
| 20260505110502 | 15 | 228 | 1.6 | 8.0 | 0.00 | 0.00 | 0.00 | 64 | 1009.6 |
| 20260505102004 | 15 | 235 | 1.6 | 4.8 | 0.00 | 0.00 | 0.00 | 67 | 1009.2 |
| 20260505101454 | 14 | 245 | 1.6 | 4.8 | 0.00 | 0.00 | 0.00 | 67 | 1009.2 |
| 20260505100955 | 14 | 245 | 3.2 | 4.8 | 0.00 | 0.00 | 0.00 | 67 | 1009.2 |
| 20260505100450 | 14 | 210 | 1.6 | 6.4 | 0.00 | 0.00 | 0.00 | 68 | 1009.2 |
| 20260505095951 | 14 | 210 | 0.0 | 6.4 | 0.00 | 0.00 | 0.00 | 68 | 1009.2 |
| 20260505095508 | 14 | 283 | 1.6 | 4.8 | 0.00 | 0.00 | 0.00 | 68 | 1009.1 |
| 20260505095500 | 14 | 237 | 1.6 | 4.8 | 0.00 | 0.00 | 0.00 | 69 | 1009.2 |
| 20260505094438 | 14 | 219 | 1.6 | 4.8 | 0.00 | 0.00 | 0.00 | 69 | 1009.1 |
| 20260505093934 | 14 | 219 | 1.6 | 4.8 | 0.00 | 0.00 | 0.00 | 69 | 1009.0 |
| 20260505093433 | 14 | 231 | 1.6 | 4.8 | 0.00 | 0.00 | 0.00 | 70 | 1009.0 |
| 20260505092934 | 14 | 231 | 1.6 | 4.8 | 0.00 | 0.00 | 0.00 | 69 | 1009.0 |
| 20260505092432 | 14 | 243 | 3.2 | 4.8 | 0.00 | 0.00 | 0.00 | 69 | 1009.1 |
| 20260505091932 | 14 | 217 | 1.6 | 4.8 | 0.00 | 0.00 | 0.00 | 69 | 1009.0 |
| 20260505091431 | 14 | 217 | 3.2 | 4.8 | 0.00 | 0.00 | 0.00 | 69 | 1008.9 |
| 20260505090932 | 14 | 213 | 3.2 | 4.8 | 0.00 | 0.00 | 0.00 | 70 | 1009.0 |
| 20260505090712 | 14 | 216 | 1.6 | 6.4 | 0.00 | 0.00 | 0.00 | 70 | 1008.9 |
| 20260505085931 | 14 | 221 | 1.6 | 6.4 | 0.00 | 0.00 | 0.00 | 70 | 1008.8 |
| 20260505085432 | 13 | 224 | 1.6 | 3.2 | 0.00 | 0.00 | 0.00 | 71 | 1008.8 |
| 20260505084931 | 13 | 223 | 0.0 | 3.2 | 0.00 | 0.00 | 0.00 | 71 | 1008.8 |
| 20260505084430 | 13 | 224 | 1.6 | 3.2 | 0.00 | 0.00 | 0.00 | 71 | 1008.9 |
| 20260505083930 | 13 | 224 | 0.0 | 6.4 | 0.00 | 0.00 | 0.00 | 71 | 1008.9 |
| 20260505083432 | 14 | 224 | 0.0 | 6.4 | 0.00 | 0.00 | 0.00 | 71 | 1009.0 |
| 20260505082930 | 14 | 243 | 0.0 | 3.2 | 0.00 | 0.00 | 0.00 | 71 | 1008.9 |